• In Netherlands
  • List of Countries
  • For 7 days
  • Water Temperature
  • Satellite Maps
  • Weather Map
  • Weather Widgets
  • user-avatar
    Login

    Hourly Weather Nashavar

    Today, 24 March, Friday

    Time Temperature Precipitation Wind Pressure Humidity
    00:00 +20°C° 0 mm 3 mps 731 mmHg 38%
    01:00 +20°C° 0 mm 3 mps 731 mmHg 38%
    02:00 +19°C° 0 mm 2 mps 731 mmHg 39%
    03:00 +19°C° 0 mm 2 mps 731 mmHg 39%
    04:00 +18°C° 0 mm 2 mps 731 mmHg 40%
    05:00 +18°C° 0 mm 2 mps 730 mmHg 40%
    06:00 +19°C° 0 mm 2 mps 731 mmHg 37%
    07:00 +20°C° 0 mm 2 mps 731 mmHg 35%
    08:00 +23°C° 0 mm 2 mps 731 mmHg 33%
    09:00 +25°C° 0 mm 2 mps 732 mmHg 29%
    10:00 +27°C° 0 mm 2 mps 732 mmHg 25%
    11:00 +29°C° 0 mm 1 mps 732 mmHg 22%
    12:00 +30°C° 0 mm 1 mps 731 mmHg 21%
    13:00 +30°C° 0 mm 1 mps 731 mmHg 19%
    14:00 +31°C° 0 mm 1 mps 731 mmHg 18%
    15:00 +31°C° 0 mm 1 mps 731 mmHg 19%
    16:00 +31°C° 0 mm 1 mps 730 mmHg 19%
    17:00 +31°C° 0 mm 1 mps 730 mmHg 19%
    18:00 +29°C° 0 mm 2 mps 730 mmHg 23%
    19:00 +27°C° 0 mm 2 mps 730 mmHg 26%
    20:00 +25°C° 0 mm 2 mps 731 mmHg 29%
    21:00 +24°C° 0 mm 2 mps 731 mmHg 31%
    22:00 +24°C° 0 mm 2 mps 731 mmHg 32%
    23:00 +23°C° 0 mm 2 mps 731 mmHg 34%

    Tomorrow, 25 March, Saturday

    Time Temperature Precipitation Wind Pressure Humidity
    00:00 +23°C° 0 mm 2 mps 731 mmHg 35%
    01:00 +21°C° 0 mm 2 mps 731 mmHg 36%
    02:00 +21°C° 0 mm 2 mps 730 mmHg 36%
    03:00 +21°C° 0 mm 2 mps 730 mmHg 36%
    04:00 +21°C° 0 mm 2 mps 730 mmHg 36%
    05:00 +20°C° 0 mm 2 mps 730 mmHg 36%
    06:00 +21°C° 0 mm 2 mps 730 mmHg 35%
    07:00 +23°C° 0 mm 2 mps 731 mmHg 33%
    08:00 +24°C° 0 mm 2 mps 731 mmHg 32%
    09:00 +24°C° 0.2 mm 3 mps 732 mmHg 32%
    10:00 +25°C° 0.2 mm 4 mps 732 mmHg 32%
    11:00 +25°C° 0.2 mm 5 mps 732 mmHg 33%
    12:00 +23°C° 0.3 mm 5 mps 732 mmHg 38%
    13:00 +22°C° 0.3 mm 5 mps 732 mmHg 43%
    14:00 +21°C° 0.3 mm 5 mps 732 mmHg 48%
    15:00 +22°C° 0 mm 4 mps 732 mmHg 44%
    16:00 +23°C° 0 mm 4 mps 731 mmHg 41%
    17:00 +25°C° 0 mm 4 mps 731 mmHg 37%
    18:00 +22°C° 0 mm 4 mps 731 mmHg 41%
    19:00 +21°C° 0 mm 3 mps 732 mmHg 44%
    20:00 +20°C° 0 mm 3 mps 732 mmHg 48%
    21:00 +19°C° 0 mm 3 mps 732 mmHg 48%
    22:00 +19°C° 0 mm 3 mps 732 mmHg 48%
    23:00 +19°C° 0 mm 3 mps 732 mmHg 48%

    Day after tomorrow, 26 March, Sunday

    Time Temperature Precipitation Wind Pressure Humidity
    00:00 +18°C° 0 mm 3 mps 732 mmHg 48%
    01:00 +18°C° 0 mm 3 mps 732 mmHg 48%
    02:00 +18°C° 0 mm 3 mps 732 mmHg 48%
    03:00 +18°C° 0 mm 3 mps 731 mmHg 48%
    04:00 +17°C° 0 mm 3 mps 731 mmHg 48%
    05:00 +17°C° 0 mm 3 mps 731 mmHg 48%
    06:00 +19°C° 0 mm 2 mps 731 mmHg 45%
    07:00 +20°C° 0 mm 2 mps 732 mmHg 42%
    08:00 +21°C° 0 mm 2 mps 732 mmHg 39%
    09:00 +25°C° 0 mm 2 mps 732 mmHg 34%
    10:00 +27°C° 0 mm 2 mps 732 mmHg 29%
    11:00 +29°C° 0 mm 2 mps 733 mmHg 24%
    12:00 +30°C° 0 mm 2 mps 732 mmHg 23%
    13:00 +31°C° 0 mm 2 mps 732 mmHg 21%
    14:00 +32°C° 0 mm 2 mps 731 mmHg 20%
    15:00 +32°C° 0 mm 1 mps 731 mmHg 20%
    16:00 +31°C° 0 mm 1 mps 730 mmHg 20%
    17:00 +31°C° 0 mm 1 mps 730 mmHg 21%
    18:00 +30°C° 0 mm 1 mps 730 mmHg 24%
    19:00 +28°C° 0 mm 2 mps 730 mmHg 27%
    20:00 +26°C° 0 mm 2 mps 731 mmHg 30%
    21:00 +25°C° 0 mm 2 mps 731 mmHg 32%
    22:00 +25°C° 0 mm 1 mps 731 mmHg 34%
    23:00 +24°C° 0 mm 1 mps 731 mmHg 35%

    27 March, Monday

    Time Temperature Precipitation Wind Pressure Humidity
    00:00 +23°C° 0 mm 1 mps 731 mmHg 36%
    01:00 +23°C° 0 mm 1 mps 730 mmHg 37%
    02:00 +22°C° 0 mm 1 mps 730 mmHg 38%
    03:00 +22°C° 0 mm 1 mps 730 mmHg 38%
    04:00 +22°C° 0 mm 1 mps 730 mmHg 39%
    05:00 +21°C° 0 mm 1 mps 729 mmHg 40%
    06:00 +23°C° 0 mm 2 mps 730 mmHg 37%
    07:00 +24°C° 0 mm 2 mps 730 mmHg 35%
    08:00 +26°C° 0 mm 2 mps 731 mmHg 32%
    09:00 +27°C° 0 mm 2 mps 731 mmHg 29%
    10:00 +29°C° 0 mm 2 mps 731 mmHg 26%
    11:00 +31°C° 0 mm 2 mps 731 mmHg 23%
    12:00 +31°C° 0 mm 2 mps 731 mmHg 22%
    13:00 +32°C° 0 mm 2 mps 730 mmHg 21%
    14:00 +33°C° 0 mm 1 mps 729 mmHg 20%
    15:00 +33°C° 0 mm 1 mps 729 mmHg 20%
    16:00 +33°C° 0 mm 1 mps 729 mmHg 20%
    17:00 +33°C° 0 mm 1 mps 728 mmHg 21%
    18:00 +31°C° 0 mm 1 mps 729 mmHg 25%
    19:00 +28°C° 0 mm 1 mps 729 mmHg 30%
    20:00 +26°C° 0 mm 1 mps 730 mmHg 34%
    21:00 +26°C° 0 mm 1 mps 730 mmHg 35%
    22:00 +25°C° 0 mm 1 mps 730 mmHg 36%
    23:00 +24°C° 0 mm 1 mps 730 mmHg 37%

    28 March, Tuesday

    Time Temperature Precipitation Wind Pressure Humidity
    00:00 +24°C° 0 mm 1 mps 730 mmHg 37%
    01:00 +24°C° 0 mm 1 mps 730 mmHg 38%
    02:00 +23°C° 0 mm 1 mps 730 mmHg 38%
    03:00 +23°C° 0 mm 1 mps 730 mmHg 39%
    04:00 +23°C° 0 mm 1 mps 730 mmHg 40%
    05:00 +21°C° 0 mm 2 mps 730 mmHg 40%
    06:00 +24°C° 0 mm 2 mps 730 mmHg 38%
    07:00 +25°C° 0 mm 2 mps 731 mmHg 35%
    08:00 +27°C° 0 mm 2 mps 731 mmHg 32%
    09:00 +28°C° 0 mm 2 mps 731 mmHg 29%
    10:00 +30°C° 0 mm 2 mps 731 mmHg 26%
    11:00 +31°C° 0 mm 1 mps 731 mmHg 23%
    12:00 +32°C° 0 mm 1 mps 731 mmHg 22%
    13:00 +33°C° 0 mm 1 mps 730 mmHg 20%
    14:00 +34°C° 0 mm 1 mps 729 mmHg 19%
    15:00 +34°C° 0 mm 1 mps 729 mmHg 20%
    16:00 +33°C° 0 mm 1 mps 729 mmHg 21%
    17:00 +33°C° 0 mm 1 mps 729 mmHg 22%
    18:00 +32°C° 0 mm 2 mps 729 mmHg 24%
    19:00 +30°C° 0 mm 2 mps 729 mmHg 27%
    20:00 +28°C° 0 mm 2 mps 729 mmHg 30%
    21:00 +28°C° 0 mm 2 mps 729 mmHg 33%
    22:00 +27°C° 0 mm 2 mps 729 mmHg 35%
    23:00 +26°C° 0 mm 3 mps 729 mmHg 38%

    29 March, Wednesday

    Time Temperature Precipitation Wind Pressure Humidity
    00:00 +25°C° 0.1 mm 3 mps 729 mmHg 41%
    01:00 +25°C° 0.1 mm 2 mps 728 mmHg 44%
    02:00 +24°C° 0.1 mm 2 mps 728 mmHg 47%
    03:00 +23°C° 0 mm 2 mps 728 mmHg 48%
    04:00 +23°C° 0 mm 2 mps 727 mmHg 49%
    05:00 +21°C° 0 mm 2 mps 727 mmHg 50%
    06:00 +24°C° 0 mm 3 mps 728 mmHg 47%
    07:00 +25°C° 0 mm 3 mps 728 mmHg 44%
    08:00 +26°C° 0 mm 3 mps 729 mmHg 41%
    09:00 +28°C° 0 mm 3 mps 729 mmHg 36%
    10:00 +29°C° 0 mm 3 mps 729 mmHg 32%
    11:00 +31°C° 0 mm 3 mps 729 mmHg 27%
    12:00 +33°C° 0 mm 3 mps 729 mmHg 25%
    13:00 +34°C° 0 mm 3 mps 728 mmHg 24%
    14:00 +35°C° 0 mm 2 mps 728 mmHg 22%
    15:00 +35°C° 0 mm 2 mps 727 mmHg 22%
    16:00 +35°C° 0 mm 2 mps 727 mmHg 22%
    17:00 +35°C° 0 mm 2 mps 727 mmHg 21%
    18:00 +32°C° 0 mm 2 mps 727 mmHg 25%
    19:00 +30°C° 0 mm 2 mps 728 mmHg 28%
    20:00 +28°C° 0 mm 2 mps 728 mmHg 31%
    21:00 +27°C° 0 mm 2 mps 729 mmHg 32%
    22:00 +27°C° 0 mm 2 mps 729 mmHg 33%
    23:00 +26°C° 0 mm 2 mps 729 mmHg 35%
    Show more